sat.trackr.live / text

‹ back to catalog

STARLINK-37284

NORAD 68623 · 2026-073X

PAYLOAD ACTIVE UNKNOWN

§ Identity

Operator
Country
US
Launch date
2026-04-07
Launch site
AFWTR
Launch vehicle
Mass (kg)
RCS (m²)

Purposes: comms

External: N2YO · Heavens-Above · Gunter

§ Orbital elements

Epoch: 2026-09-19T22:49:33.254112Z

Period
93.91 min
Inclination
97.2856°
Eccentricity
0.0001349
Mean motion
15.33462167 rev/d
Perigee alt
464.6 km
Apogee alt
466.4 km
Semi-major
6,843.6 km
B*
2.7717e-4
RAAN
100.9348°
Arg perigee
70.9369°
Mean anomaly
289.2020°
Rev number
2,565

§ Raw data

STARLINK-372841 68623U 26073X   26262.95107933  .00008888  00000+0  27717-3 0  99962 68623  97.2856 100.9348 0001349  70.9369 289.2020 15.33462167 25659

JSON: /api/v1/satellites/68623 · /tle

For live sub-satellite position, see the globe view (requires WebGL).

§ Visibility from observer

Set your observer location to see the next 7 days of passes ≥ 10°. The values pass through the URL so the page stays shareable.

No JS? Fill the form by hand. The geolocation button needs JavaScript.